User: anonymous   Login
Location: *
(60.1759°S, 155.0663°W)
Time: 03:07:23
(UTC+00:00)
Language:

Cosmos 2219 Rocket - Orbit

View from above orbital plane
View from above orbital plane
View from above satellite
View from above satellite

Ground track
Ground track

The orbit data is extracted from the following two-line orbital elements,

1 22220U 92076B   19320.16879406  .00000214  00000-0  13145-3 0  9992
2 22220  71.0013   2.6666 0012731 358.4217  61.2452 14.16448792395667
Epoch (UTC): 16 November 2019 04:03:03
Eccentricity: 0.0012731
inclination: 71.0013°
perigee height: 828 km
apogee height: 846 km
right ascension of ascending node: 2.6666°
argument of perigee: 358.4217°
revolutions per day: 14.16448792
mean anomaly at epoch: 61.2452°
orbit number at epoch: 39566

The dashed part of the orbit path shows where the satellite is in the earth's shadow,  

DLR